This is the latest recevied weather packets stored in our database for station/object KB1YYC. If no packets are shown the sender has not sent any weather packets the latest 10 day(s).
| Time | Temp. | Humidity | Pressure | Rain* | Wind** | Luminosity | Snow |
|---|---|---|---|---|---|---|---|
| 1777547972 | 6.67° C | 99% | 1009.5 hPa | 0 mm | - | 69 W/m² | - |
| 1777547668 | 6.11° C | 99% | 1009.6 hPa | 0 mm | - | 62 W/m² | - |
| 1777547364 | 6.11° C | 99% | 1009.5 hPa | 0 mm | - | 49 W/m² | - |
| 1777547063 | 6.11° C | 99% | 1009.4 hPa | 0 mm | - | 41 W/m² | - |
| 1777546760 | 6.11° C | 99% | 1009.4 hPa | 0 mm | - | 30 W/m² | - |
| 1777546456 | 6.11° C | 99% | 1009.2 hPa | 1.78 mm | - | 25 W/m² | - |
| 1777546153 | 6.11° C | 99% | 1009.3 hPa | 1.78 mm | - | 23 W/m² | - |
| 1777545849 | 6.11° C | 99% | 1009.3 hPa | 0 mm | - | 21 W/m² | - |
| 1777545546 | 6.11° C | 99% | 1009.3 hPa | 0 mm | - | 23 W/m² | - |
| 1777545243 | 6.11° C | 99% | 1009.2 hPa | 0 mm | - | 20 W/m² | - |
| 1777544941 | 6.11° C | 99% | 1009.2 hPa | 0 mm | - | 19 W/m² | - |
| 1777544636 | 6.11° C | 99% | 1009.2 hPa | 0 mm | - | 18 W/m² | - |
| 1777544333 | 6.11° C | 99% | 1009.2 hPa | 0 mm | - | 17 W/m² | - |
| 1777544030 | 6.11° C | 99% | 1009.1 hPa | 0 mm | - | 18 W/m² | - |
| 1777543727 | 6.11° C | 99% | 1009.1 hPa | 0 mm | - | 16 W/m² | - |
| 1777543423 | 5.56° C | 99% | 1009.4 hPa | 1.27 mm | - | 12 W/m² | - |
| 1777543118 | 5.56° C | 99% | 1009.2 hPa | 1.27 mm | - | 7 W/m² | - |
| 1777542815 | 5.56° C | 99% | 1009.4 hPa | 0 mm | - | 4 W/m² | - |
| 1777542512 | 5.56° C | 99% | 1009.5 hPa | 0 mm | - | 2 W/m² | - |
| 1777542207 | 5.56° C | 99% | 1009.3 hPa | 0 mm | - | 1 W/m² | - |
| 1777541905 | 5.56° C | 99% | 1009.4 hPa | 0 mm | - | 1 W/m² | - |
| 1777541603 | 5.56° C | 99% | 1009.3 hPa | 0 mm | - | 0 W/m² | - |
| 1777541299 | 5.56° C | 99% | 1009.2 hPa | 0 mm | - | 0 W/m² | - |
| 1777540995 | 5.56° C | 99% | 1009.4 hPa | 1.78 mm | - | 0 W/m² | - |
| 1777540693 | 5.56° C | 99% | 1009.4 hPa | 1.78 mm | - | 0 W/m² | - |
* Rain latest hour (hover to see other rain measurements)
** Current wind speed in m/s (hover to see current wind gust speed)